User: anonymous   Login
Location: Chequamegon National Forest
(46.1070°N, 90.8420°W)
Time: 20:21:49
(UTC-06:00)
Language:

ISS - Orbit

View from above orbital plane
View from above orbital plane
View from above satellite
View from above satellite

Ground track
Ground track

The orbit data is extracted from the following two-line orbital elements,

1 25544U 98067A   14356.59502037  .00022035  00000-0  35806-3 0  6107
2 25544 051.6479 245.2049 0007509 161.4057 273.7275 15.52599672920561
Epoch (UTC): 22 December 2014 14:16:49
Eccentricity: 0.0007509
inclination: 51.6479°
perigee height: 404 km
apogee height: 414 km
right ascension of ascending node: 245.2049°
argument of perigee: 161.4057°
revolutions per day: 15.52599672
mean anomaly at epoch: 273.7275°
orbit number at epoch: 92056

The dashed part of the orbit path shows where the satellite is in the earth's shadow,  

DLR